Temperature
13 13 13 13 13 13 13 13 13 13 13 13 13 12 12 12 12 12 12 12 11 11 11 11 11 11 11 11 11 11 11 11 11 11 11 11 11 11 11 11 11 11 12
13 13 13 13 13 13 13 13 13 13 13 13 13 12 12 12 12 12 11 11 11 11 11 11 11 11 11 11 11 11 11 11 11 11 11 11 11 11 11 11 11 11 11
13 13 13 13 13 13 13 13 13 13 13 12 12 12 12 12 11 11 11 11 11 11 11 11 11 11 10 10 10 10 10 10 10 10 11 11 11 11 11 11 11 11 11
12 12 12 12 12 12 12 12 12 12 12 12 12 12 12 11 11 11 11 11 10 10 10 10 10 10 10 10 10 10 10 10 10 10 10 10 10 10 10 10 10 10 10
12 12 12 12 12 12 12 12 12 12 12 12 12 11 11 11 11 11 10 10 10 10 10 10 10 10 10 10 9 9 9 9 9 9 9 9 9 9 9 9 9 9 9
12 12 12 12 12 12 12 12 12 12 11 11 11 11 11 11 11 10 10 10 10 10 10 10 9 9 9 9 9 9 9 9 9 9 9 9 9 9 9 9 9 9 9
11 11 11 11 11 11 11 11 11 11 11 11 11 11 10 10 10 10 10 9 9 9 9 9 9 9 9 9 9 9 9 8 8 8 8 8 8 8 8 8 8 8 8
11 11 11 11 11 11 11 11 11 11 10 10 10 10 9 9 9 9 9 9 9 9 9 9 9 8 8 8 8 8 8 8 8 7 8 8 8 8 8 8 8 8 8
10 10 10 10 10 10 10 10 10 10 10 9 9 9 9 8 8 9 9 9 8 8 8 8 8 8 8 8 8 8 8 8 7 7 7 7 7 7 7 7 7 7 7
10 10 10 10 10 10 10 10 10 10 9 9 9 8 8 8 7 7 8 8 8 8 8 8 8 8 7 7 7 7 7 7 7 7 7 7 7 7 6 6 7 7 7
10 10 9 9 9 9 9 9 9 9 9 9 8 8 8 8 7 7 7 8 8 8 7 7 7 7 7 7 7 7 7 7 6 6 6 6 6 6 6 6 6 6 7
9 9 9 9 9 9 9 9 9 9 8 8 8 8 8 7 7 7 6 7 7 7 7 7 7 7 6 6 6 6 6 6 6 6 6 6 6 6 6 6 6 6 6
9 9 9 9 8 8 8 8 8 8 8 8 8 7 7 7 7 6 6 6 6 6 7 7 7 6 6 6 6 6 6 6 6 5 5 5 5 6 6 6 6 6 5
8 8 8 8 8 8 8 8 8 8 7 7 7 7 7 7 6 6 6 5 5 5 6 6 6 6 6 6 5 5 5 5 5 5 5 5 5 5 5 5 5 5 5
8 8 8 8 8 8 8 7 7 7 7 7 7 7 6 6 6 6 5 5 4 4 4 5 5 5 5 5 5 5 5 5 5 5 5 5 5 5 5 5 4 4 4
8 8 8 8 7 7 7 7 7 7 6 6 6 6 6 6 5 5 5 5 4 4 4 4 5 5 5 4 4 4 4 4 4 4 4 4 4 4 4 4 4 4 4
7 7 7 7 7 7 7 7 6 6 6 6 6 5 5 5 5 5 5 4 4 4 3 4 4 4 4 4 4 4 4 4 4 4 4 4 4 4 3 3 3 3 3
7 7 7 7 6 6 6 6 6 6 5 5 5 5 5 5 4 4 4 4 4 4 3 3 3 3 4 3 3 3 3 3 3 3 3 3 3 3 3 3 3 3 3
6 6 6 6 6 6 6 5 5 5 5 5 5 4 4 4 4 4 4 4 3 3 3 3 3 3 3 3 3 3 3 3 3 3 3 3 3 3 2 2 2 2 2
6 6 6 5 5 5 5 5 5 5 4 4 4 4 4 3 3 3 3 3 3 3 2 2 2 2 2 2 2 2 3 3 3 3 2 2 2 2 2 2 2 2 2
5 5 5 5 5 5 5 4 4 4 4 4 4 3 3 3 3 2 2 2 2 2 2 2 2 2 2 2 2 2 2 2 2 2 2 2 2 2 2 2 2 1 1
5 5 5 5 5 4 4 4 4 4 3 3 3 3 3 3 2 2 2 2 2 1 1 1 1 1 2 1 1 1 1 1 1 1 1 2 1 1 1 1 1 1 1
5 4 4 4 4 4 4 3 3 3 3 3 3 3 2 2 2 2 2 1 1 1 1 1 1 1 1 1 0 0 0 0 0 0 0 1 1 1 1 1 1 0 0
4 4 4 4 3 3 3 3 3 3 3 3 2 2 2 2 2 1 1 1 1 1 1 1 0 0 0 0 -0 -0 -0 -0 -0 -0 -1 -0 0 0 0 0 0 0 -0
4 4 3 3 3 3 3 3 2 2 2 2 2 2 1 1 1 1 0 1 1 1 0 0 0 0 -0 -0 -0 -1 -1 -1 -1 -0 -1 -1 -1 -1 -0 -0 -0 -0 -1
3 3 3 3 3 3 2 2 2 2 2 2 2 1 1 1 1 0 -0 -0 -0 0 -0 -0 -0 -0 -0 -0 -1 -1 -1 -2 -2 -2 -1 -2 -2 -2 -2 -1 -1 -1 -1
Wind_Speed
2 3 2 3 3 3 3 3 3 3 3 3 3 3 3 3 2 2 3 3 3 3 3 3 3 3 3 3 3 3 3 3 3 4 4 4 4 5 5 5 6 6 6
4 3 2 2 3 3 3 2 2 2 2 3 3 3 3 2 2 3 3 3 4 4 3 3 3 3 3 3 4 4 4 4 4 4 4 4 5 5 6 6 6 6 7
5 4 2 2 2 3 3 3 3 3 2 2 2 2 2 2 2 3 3 3 3 4 4 4 4 4 3 3 4 4 4 4 4 5 5 5 6 6 6 7 7 7 7
6 5 2 1 2 3 3 2 2 2 2 2 2 2 1 1 2 2 3 3 3 3 4 4 5 5 4 4 4 4 4 5 5 6 6 7 7 7 7 8 7 7 8
6 5 3 2 3 3 2 1 2 1 1 2 1 1 1 1 0 2 3 4 4 4 4 4 5 5 5 5 5 5 5 5 6 6 7 8 8 8 8 9 9 8 8
6 5 3 3 3 2 2 2 2 2 1 1 1 2 2 1 1 1 2 3 4 4 4 4 4 4 5 5 6 6 6 6 6 7 8 8 9 9 9 9 9 9 9
5 5 3 2 2 2 2 2 1 2 2 2 2 2 3 2 2 1 1 2 3 4 4 4 3 3 4 5 6 7 7 7 7 7 8 9 9 9 9 9 10 10 10
4 3 3 2 2 2 2 2 2 1 1 2 2 1 2 3 2 2 1 1 1 3 3 3 2 2 3 3 5 7 8 9 9 9 9 9 9 10 10 10 10 10 10
3 3 3 2 2 2 1 1 2 2 1 1 1 2 1 1 2 2 1 1 1 1 1 1 1 1 1 2 3 5 7 8 9 9 10 10 10 11 11 11 11 11 10
2 2 3 2 2 1 1 1 1 1 2 1 0 1 1 2 1 2 3 2 2 1 2 2 2 1 1 1 3 5 7 8 9 10 10 10 11 11 11 11 11 11 11
1 2 2 2 1 1 1 1 1 1 1 2 1 1 1 1 1 1 3 3 3 3 2 2 2 1 1 1 3 4 6 8 10 11 11 11 11 11 12 11 11 11 11
1 1 2 2 2 2 2 2 2 2 2 2 1 1 1 1 1 1 2 3 4 4 3 2 2 2 2 3 4 6 7 8 9 11 11 11 11 11 11 11 11 11 11
1 2 2 2 2 3 3 3 2 2 2 2 2 2 2 2 2 2 2 2 3 3 2 2 2 3 3 4 5 7 7 8 9 10 11 10 10 10 11 11 12 11 11
3 3 3 3 3 3 3 3 2 2 2 3 3 3 2 2 2 2 2 2 2 3 3 4 2 3 3 4 6 7 7 9 9 10 10 11 10 10 11 11 12 11 11
2 2 3 3 3 3 3 3 2 2 3 3 3 3 2 2 2 2 2 3 3 3 4 4 3 2 4 5 7 6 7 9 10 10 10 11 10 11 11 11 11 11 11
2 2 2 3 3 3 3 3 3 3 3 3 3 4 3 2 2 2 3 3 3 4 5 3 4 3 4 6 8 7 8 10 10 11 11 11 11 11 12 12 12 11 11
3 3 3 3 3 3 3 3 3 3 4 4 3 4 4 3 3 3 3 3 3 3 6 5 3 3 3 4 6 7 8 9 9 11 12 12 12 12 12 12 12 11 11
3 3 3 3 3 3 3 4 4 4 4 4 4 4 4 3 4 3 3 4 4 4 5 7 5 4 4 4 5 5 7 8 9 11 13 13 13 12 12 12 12 11 11
3 3 3 3 3 4 4 4 5 4 4 5 4 5 5 4 5 4 4 4 4 4 4 5 6 4 4 3 4 5 5 5 8 10 11 12 13 13 13 13 12 12 11
3 4 4 4 4 4 4 4 4 5 5 5 5 5 5 5 6 5 5 5 4 4 4 5 6 5 4 4 3 4 5 4 5 6 9 10 11 12 13 13 12 12 12
3 4 3 3 4 4 4 5 5 5 5 5 5 5 6 7 8 7 5 5 5 4 4 5 6 5 5 4 4 4 5 6 5 4 4 5 5 6 8 11 11 11 11
3 3 3 4 4 4 7 8 6 5 5 5 5 5 6 7 8 10 10 9 7 6 6 6 6 7 7 6 5 5 5 5 5 3 3 5 4 6 6 8 11 12 11
3 4 4 4 5 6 9 9 9 5 5 6 6 5 5 5 7 5 8 10 9 11 11 8 8 9 8 6 5 6 6 6 7 4 3 6 4 6 6 9 12 12 12
3 4 5 5 5 7 9 9 9 5 5 6 6 6 6 6 6 6 5 6 7 7 9 7 8 9 8 7 6 7 7 6 6 4 3 5 4 5 5 7 11 12 12
3 4 4 4 5 7 8 9 8 4 5 6 6 6 6 7 10 10 6 7 8 7 9 12 12 12 14 13 9 4 4 5 6 5 3 3 4 5 5 5 7 9 10
3 4 4 4 5 6 8 9 7 3 5 5 5 6 9 10 11 11 7 7 9 8 6 6 7 9 8 9 11 7 6 6 5 5 3 3 3 3 4 3 3 4 6
Wind_Direction
105 98 92 81 63 57 53 41 37 37 37 34 41 54 50 47 51 55 40 49 54 61 58 47 32 21 21 25 18 9 4 360 358 355 352 347 341 335 328 321 315 309 307
103 102 98 77 55 50 54 53 43 55 50 47 36 43 50 56 57 59 58 61 63 61 51 39 27 16 8 7 6 5 5 1 354 345 339 334 331 327 323 320 319 316 308
104 103 105 86 47 51 58 56 46 47 52 47 23 19 42 47 58 69 77 80 65 47 41 34 24 11 9 9 5 7 6 2 356 351 345 333 324 319 313 311 312 313 312
99 93 92 84 53 59 55 68 54 48 42 33 8 343 3 34 61 79 85 83 72 49 37 35 31 20 17 15 7 3 3 3 356 346 339 336 329 323 318 314 310 309 309
99 94 83 65 69 68 56 54 57 71 49 15 351 348 346 342 94 84 84 82 77 68 55 40 36 32 28 17 6 359 356 354 349 345 342 338 332 326 326 325 318 312 310
101 95 87 62 72 81 58 52 65 56 65 357 356 6 343 332 93 97 99 82 73 69 60 47 41 30 27 20 9 358 352 352 348 345 341 339 337 334 329 323 320 317 313
102 100 90 68 71 89 81 73 86 72 38 16 43 14 359 13 57 68 75 80 65 57 52 46 44 37 26 16 7 357 349 344 341 341 341 340 337 334 332 330 327 320 314
102 110 107 103 87 87 75 69 81 93 48 39 76 78 3 347 354 7 27 70 56 52 45 35 35 39 33 17 359 358 353 343 337 334 333 333 333 332 331 330 327 325 322
99 109 115 112 106 106 118 112 120 122 124 359 66 127 123 263 309 319 330 7 2 354 341 3 10 359 1 5 353 351 349 342 333 327 326 325 324 323 324 325 325 325 324
133 132 126 123 117 118 133 144 118 136 146 172 333 59 153 166 183 305 308 306 310 290 286 312 313 309 304 321 330 336 338 334 328 323 322 321 321 319 319 320 321 323 321
190 183 165 154 161 170 176 151 115 135 159 177 197 193 88 86 146 190 284 304 306 278 269 265 259 277 292 300 304 321 327 324 322 320 318 318 319 320 320 319 320 321 320
218 209 197 188 197 195 198 189 175 181 186 184 193 189 174 177 194 191 247 286 294 286 284 261 238 241 260 279 292 309 313 314 316 314 313 314 317 319 319 318 319 319 319
225 230 212 204 212 214 210 193 175 195 194 192 198 202 204 208 198 193 211 264 289 294 290 278 244 246 263 280 288 300 302 305 309 309 310 314 316 316 316 314 313 314 316
226 224 215 209 217 220 213 195 185 209 203 202 212 208 213 228 206 196 194 214 291 297 285 272 276 247 271 280 284 292 292 299 304 305 308 310 311 311 311 310 310 309 310
228 221 218 218 221 221 213 196 200 216 210 212 219 220 220 231 225 217 205 196 205 268 282 272 275 275 278 284 285 284 284 293 300 300 302 301 303 303 303 303 304 305 305
225 217 229 226 229 228 224 206 210 217 213 224 218 216 227 232 235 229 220 216 207 221 261 269 263 274 283 287 288 285 281 292 295 295 295 293 294 295 297 298 297 298 300
225 230 236 236 233 234 232 219 220 220 221 233 231 220 232 230 226 230 226 226 225 217 254 277 266 272 272 283 296 291 287 286 286 288 290 290 290 291 292 292 291 292 295
233 233 235 237 242 240 233 225 227 225 223 232 236 230 239 234 231 231 228 232 234 228 238 269 280 279 271 276 280 286 290 289 282 285 289 287 287 288 289 288 287 287 289
239 238 234 237 245 246 240 236 230 229 228 231 232 233 240 229 240 239 236 239 241 244 233 254 274 276 279 282 286 288 286 284 285 287 288 284 284 285 286 285 283 285 286
233 237 237 239 245 248 245 242 236 234 236 237 234 235 240 234 239 241 243 242 242 246 245 254 268 275 277 280 278 285 295 288 288 293 290 287 286 287 286 284 281 282 284
241 238 240 249 250 249 247 243 237 233 233 241 243 241 242 241 240 242 246 242 240 247 251 257 268 276 277 282 278 275 284 295 288 278 292 288 287 285 283 282 278 277 280
253 250 243 242 247 253 259 253 245 235 234 237 246 249 250 250 250 256 261 258 246 246 252 257 265 267 271 268 272 276 283 298 295 282 291 289 278 279 275 271 273 275 275
251 253 250 245 249 256 266 267 257 243 234 238 241 246 256 255 255 249 265 270 264 260 256 253 261 263 268 262 263 272 267 266 270 276 289 285 281 277 275 275 277 274 275
248 251 252 250 255 265 271 272 268 250 240 243 241 241 247 255 250 248 252 261 262 263 262 256 253 259 260 257 248 258 264 272 275 266 240 270 280 275 284 278 279 277 276
257 257 259 255 259 273 277 276 273 252 249 251 249 244 244 249 259 260 255 261 269 270 267 262 264 268 272 270 262 261 262 272 282 273 220 243 276 288 285 281 285 285 284
262 270 273 266 262 269 278 280 275 248 254 260 258 252 251 254 264 265 252 253 266 271 270 274 275 277 275 274 265 245 238 253 269 272 229 224 265 295 294 277 278 289 293
Height
1526 1527 1527 1527 1528 1528 1528 1528 1528 1528 1528 1529 1528 1528 1528 1528 1528 1528 1528 1528 1528 1528 1528 1527 1527 1527 1526 1526 1526 1525 1525 1524 1524 1523 1523 1522 1522 1521 1520 1520 1519 1519 1518
1525 1525 1526 1526 1526 1526 1527 1527 1527 1527 1527 1527 1527 1527 1527 1527 1527 1527 1527 1527 1527 1527 1526 1526 1526 1525 1525 1524 1524 1523 1523 1522 1521 1521 1520 1520 1519 1519 1518 1517 1517 1516 1515
1523 1524 1524 1525 1525 1525 1525 1526 1526 1526 1525 1525 1525 1525 1525 1525 1525 1525 1525 1525 1525 1525 1525 1524 1524 1523 1523 1522 1522 1521 1520 1520 1519 1518 1518 1517 1517 1516 1515 1515 1514 1513 1512
1521 1522 1523 1523 1524 1524 1524 1524 1524 1524 1524 1523 1523 1524 1524 1524 1524 1524 1524 1524 1524 1523 1523 1523 1522 1522 1521 1520 1520 1519 1518 1518 1517 1516 1515 1515 1514 1513 1512 1511 1511 1510 1509
1520 1521 1521 1521 1522 1522 1522 1522 1522 1522 1522 1522 1522 1522 1522 1522 1522 1522 1522 1522 1522 1522 1521 1521 1520 1520 1519 1518 1518 1517 1516 1515 1515 1514 1513 1512 1511 1510 1509 1508 1508 1507 1506
1518 1519 1519 1520 1520 1520 1520 1520 1520 1520 1520 1520 1520 1520 1520 1520 1520 1520 1520 1520 1520 1520 1519 1519 1518 1518 1517 1516 1515 1515 1514 1513 1513 1512 1511 1510 1509 1507 1506 1505 1504 1503 1502
1516 1517 1517 1518 1518 1518 1518 1518 1518 1518 1518 1518 1518 1518 1518 1518 1518 1518 1519 1518 1518 1518 1517 1517 1516 1515 1515 1514 1513 1513 1512 1511 1510 1509 1508 1507 1506 1505 1503 1502 1501 1500 1499
1514 1515 1515 1516 1516 1516 1516 1516 1516 1516 1516 1516 1516 1516 1516 1517 1517 1517 1517 1516 1516 1516 1515 1514 1514 1513 1512 1512 1511 1510 1509 1508 1507 1506 1505 1504 1503 1502 1501 1499 1498 1497 1495
1512 1513 1514 1514 1514 1514 1514 1514 1514 1514 1514 1514 1514 1515 1514 1514 1514 1514 1514 1514 1514 1513 1513 1512 1511 1510 1509 1509 1508 1507 1506 1505 1504 1503 1502 1501 1500 1498 1497 1496 1495 1493 1492
1511 1511 1512 1512 1512 1512 1512 1512 1512 1512 1513 1512 1512 1512 1513 1512 1512 1511 1512 1512 1511 1511 1510 1509 1508 1507 1507 1506 1505 1504 1503 1502 1501 1500 1499 1497 1496 1495 1494 1492 1491 1489 1488
1509 1509 1510 1510 1510 1510 1510 1510 1510 1510 1510 1510 1510 1510 1510 1510 1509 1509 1508 1508 1508 1508 1507 1506 1505 1504 1504 1503 1502 1501 1500 1498 1497 1496 1495 1494 1492 1491 1489 1488 1486 1485 1483
1507 1507 1507 1508 1508 1508 1508 1507 1507 1508 1508 1508 1508 1508 1507 1507 1507 1506 1506 1504 1504 1504 1503 1503 1502 1501 1501 1500 1499 1498 1496 1495 1493 1492 1491 1489 1488 1487 1485 1484 1482 1481 1479
1504 1505 1505 1505 1505 1505 1505 1504 1504 1505 1505 1505 1505 1505 1505 1505 1504 1504 1503 1502 1501 1500 1499 1499 1499 1498 1497 1496 1495 1494 1492 1491 1489 1488 1486 1485 1484 1482 1481 1479 1478 1476 1475
1502 1502 1502 1502 1502 1502 1502 1501 1501 1502 1502 1502 1502 1502 1502 1502 1501 1501 1501 1500 1497 1496 1495 1495 1495 1494 1493 1492 1491 1490 1488 1487 1485 1483 1482 1480 1479 1477 1476 1475 1473 1472 1470
1499 1499 1499 1499 1499 1498 1498 1498 1497 1498 1498 1498 1498 1498 1498 1498 1498 1498 1497 1497 1496 1493 1491 1490 1490 1489 1489 1488 1487 1485 1484 1482 1481 1479 1477 1476 1474 1473 1471 1470 1468 1467 1465
1496 1496 1495 1495 1495 1495 1495 1494 1494 1494 1494 1494 1494 1494 1494 1494 1494 1494 1493 1493 1492 1491 1488 1486 1486 1485 1484 1483 1482 1481 1479 1478 1476 1475 1473 1471 1470 1468 1466 1465 1463 1462 1460
1493 1493 1492 1492 1491 1491 1491 1490 1490 1490 1490 1490 1490 1490 1490 1490 1490 1489 1489 1488 1488 1486 1484 1481 1481 1481 1480 1478 1477 1476 1475 1473 1471 1470 1468 1466 1465 1463 1461 1460 1458 1456 1455
1489 1489 1489 1488 1487 1487 1487 1487 1486 1486 1486 1486 1486 1486 1486 1485 1485 1485 1484 1483 1482 1481 1480 1477 1476 1475 1474 1473 1472 1471 1469 1468 1466 1465 1463 1461 1460 1458 1456 1454 1453 1451 1449
1486 1485 1485 1484 1484 1483 1483 1483 1482 1481 1481 1481 1481 1481 1481 1481 1480 1479 1479 1478 1477 1476 1475 1473 1471 1470 1469 1468 1466 1465 1464 1462 1461 1459 1457 1456 1454 1452 1450 1449 1447 1445 1443
1482 1482 1481 1480 1480 1480 1479 1479 1478 1478 1477 1477 1477 1477 1476 1476 1475 1474 1474 1473 1472 1471 1469 1468 1466 1465 1464 1462 1461 1459 1457 1456 1455 1453 1451 1450 1448 1447 1445 1443 1441 1439 1438
1478 1477 1476 1476 1476 1475 1475 1474 1474 1473 1473 1472 1472 1472 1471 1471 1470 1470 1469 1468 1467 1465 1464 1463 1461 1460 1458 1457 1455 1453 1452 1450 1448 1447 1445 1444 1442 1440 1439 1437 1435 1433 1432
1473 1473 1472 1472 1472 1471 1471 1470 1469 1468 1468 1467 1467 1467 1466 1466 1465 1464 1463 1463 1462 1461 1459 1457 1456 1454 1453 1452 1451 1448 1446 1444 1441 1442 1439 1437 1437 1434 1433 1431 1430 1428 1426
1469 1468 1468 1467 1467 1466 1466 1465 1464 1463 1463 1462 1462 1461 1461 1460 1460 1459 1458 1457 1456 1455 1454 1453 1450 1449 1448 1447 1445 1443 1441 1439 1437 1435 1434 1430 1430 1428 1427 1425 1424 1422 1420
1464 1464 1463 1462 1461 1461 1461 1460 1459 1458 1457 1457 1456 1456 1455 1455 1454 1453 1452 1451 1450 1449 1448 1447 1445 1443 1442 1441 1440 1438 1436 1433 1431 1430 1428 1424 1422 1421 1420 1419 1417 1416 1414
1460 1459 1458 1457 1457 1456 1456 1455 1454 1453 1452 1451 1451 1451 1450 1449 1449 1448 1446 1445 1443 1442 1442 1440 1439 1437 1436 1435 1434 1432 1430 1427 1424 1422 1422 1419 1416 1414 1413 1412 1411 1409 1408
1455 1455 1454 1453 1452 1452 1451 1450 1449 1447 1446 1446 1445 1445 1444 1443 1443 1442 1441 1439 1437 1436 1435 1433 1432 1430 1429 1428 1427 1426 1424 1422 1419 1416 1415 1414 1411 1410 1406 1404 1404 1403 1402